Wetbulb
55.84 56.05 55.83 55.79 55.41 54.70 54.39 54.21 54.09 54.14 54.45 54.27 54.31 54.09 53.70 52.84 49.66 38.99 35.64 43.01 47.09 53.12 47.93 36.65 36.11 36.34 36.13 35.34 37.79 35.87 29.67 25.44 27.03 27.87 29.82 30.10 30.54 30.71 31.65 32.07 31.48 31.70 32.72 34.42 35.23
56.00 55.68 55.23 55.16 55.42 54.59 54.03 53.66 53.50 53.33 53.80 53.56 53.85 53.83 53.00 52.57 39.63 33.26 42.11 51.37 51.12 51.74 37.33 33.72 33.41 35.72 32.79 34.59 35.11 33.38 27.22 28.84 30.34 28.50 28.41 30.86 30.84 31.19 30.89 30.33 30.17 30.25 32.28 33.99 33.99
56.00 55.81 55.68 54.95 55.09 54.70 53.92 53.23 52.98 52.77 52.62 53.50 53.23 53.25 52.41 48.99 33.96 32.62 45.22 50.04 50.20 46.37 36.04 34.82 33.97 33.84 31.89 33.50 33.71 31.30 28.33 30.12 29.40 31.53 30.67 31.29 29.67 30.19 29.80 28.13 31.92 31.22 29.08 31.31 31.76
55.94 55.82 55.62 54.35 54.24 54.44 53.75 53.07 52.68 52.70 52.26 52.58 53.06 52.62 51.69 39.24 26.96 33.54 46.80 47.74 47.70 40.34 36.51 34.32 31.90 29.19 28.37 29.65 32.71 28.95 29.05 28.24 29.69 30.15 30.65 29.78 30.63 28.81 30.15 28.86 31.27 32.57 31.69 31.27 30.71
56.04 54.38 54.55 53.60 53.60 54.10 53.23 52.61 52.24 52.17 51.29 51.18 51.67 51.58 41.70 30.59 30.74 36.50 45.65 42.02 36.90 36.33 33.62 32.41 30.05 29.27 26.86 27.47 28.23 26.87 28.70 28.63 28.12 28.91 28.11 29.84 28.09 27.75 28.20 29.99 30.98 32.21 31.80 30.48 30.57
55.33 54.52 54.17 53.24 53.10 53.67 53.08 52.08 51.64 51.41 50.19 49.96 50.51 49.84 35.10 26.84 35.27 37.68 36.75 36.03 34.91 33.68 31.59 31.98 29.70 30.87 27.60 26.40 26.56 25.48 27.18 27.59 27.65 28.09 27.29 27.57 26.83 27.21 27.00 29.19 29.88 30.79 29.57 29.99 30.16
54.89 54.15 54.02 53.11 52.78 53.23 53.15 51.79 51.21 51.12 49.02 48.91 49.78 44.50 31.58 30.17 34.46 34.99 36.29 33.35 33.87 33.22 31.22 32.11 32.34 30.08 28.38 25.30 27.86 26.52 23.25 24.36 25.79 26.78 26.38 26.06 25.40 25.28 26.80 28.65 28.23 28.80 29.38 29.62 29.70
54.02 53.60 53.26 52.80 52.64 52.93 52.79 51.39 50.99 50.78 48.62 47.65 48.37 36.26 29.16 36.57 34.64 35.46 35.06 33.25 34.89 34.86 34.10 33.31 33.07 30.83 28.08 27.19 25.79 21.65 21.05 19.87 21.61 25.14 25.70 26.89 23.15 24.50 26.15 26.78 26.23 26.75 28.32 28.60 28.81
53.49 53.19 52.90 52.45 52.43 52.33 51.97 51.03 49.48 50.02 48.05 47.10 35.62 32.01 28.46 39.61 33.79 34.00 33.03 32.06 33.46 34.15 34.30 37.11 32.61 26.65 27.21 22.36 19.00 19.94 16.32 15.88 20.76 22.38 22.84 23.61 22.02 23.67 26.60 26.24 24.88 24.64 25.82 27.12 27.17
52.96 52.76 52.07 51.63 51.73 51.55 50.60 47.03 47.98 43.08 42.85 41.19 37.48 28.74 32.25 30.66 33.58 34.77 34.17 34.58 31.67 32.12 32.83 30.14 25.72 22.08 20.57 19.10 13.37 16.77 16.01 18.47 17.25 18.61 20.13 18.09 18.11 23.65 25.59 26.81 26.05 23.77 23.80 25.33 26.10
52.37 52.41 51.71 51.63 51.47 50.02 39.83 34.20 32.85 31.94 32.73 28.38 28.42 29.12 31.21 34.20 34.76 33.76 33.93 32.44 31.62 29.98 23.89 26.08 21.68 18.72 16.04 19.47 17.01 14.06 13.39 13.81 17.29 20.69 17.31 17.42 17.84 22.36 24.01 24.29 23.79 23.91 24.16 25.21 26.51
52.29 52.23 51.96 51.91 50.17 44.77 34.46 30.30 29.67 30.91 26.96 31.52 31.56 31.59 33.06 32.69 30.18 32.92 34.05 28.73 27.73 23.93 24.07 22.59 18.27 20.76 22.44 22.70 21.23 19.15 15.18 14.34 18.75 20.60 17.79 14.33 17.61 21.62 23.28 22.21 24.31 24.91 24.18 25.81 26.49
52.30 51.99 51.79 49.59 45.72 36.64 31.61 30.39 34.67 32.79 26.78 30.69 31.34 30.59 30.50 32.08 27.74 29.15 31.11 27.55 25.28 23.43 21.70 20.16 20.51 24.53 23.67 20.38 21.14 17.95 14.32 15.27 15.16 19.67 17.92 16.58 18.89 19.90 22.69 21.46 21.83 23.98 24.37 26.18 26.86
51.71 51.61 50.23 46.28 37.38 31.92 29.84 34.12 34.88 33.79 22.82 27.68 28.63 30.46 31.90 31.13 26.95 32.56 31.23 28.39 24.95 21.89 21.04 19.57 22.76 23.15 20.85 20.90 20.18 18.21 18.77 19.11 17.85 13.84 11.05 13.46 11.17 17.19 15.23 17.30 17.51 18.06 17.43 22.10 24.59
51.46 50.24 46.85 42.58 31.47 29.90 32.21 33.15 33.43 32.58 8.49 28.95 28.37 33.88 31.49 27.98 27.91 28.63 30.95 28.68 22.95 23.06 22.34 19.65 20.15 20.69 20.13 19.63 21.35 17.81 20.25 18.21 16.07 9.01 7.02 11.97 7.91 14.88 16.82 14.96 14.51 16.63 18.87 18.81 21.64
51.02 48.14 44.30 35.86 32.28 31.41 32.51 34.01 34.43 23.39 6.41 24.99 28.06 26.46 26.08 27.85 28.42 29.16 28.95 30.59 27.69 23.85 22.29 19.73 21.89 20.84 19.82 21.06 21.41 21.49 17.90 16.82 13.08 3.98 0.29 8.48 8.48 12.74 11.49 11.41 16.04 15.93 18.94 20.79 18.86
50.35 46.22 40.82 35.74 30.83 32.32 33.01 32.16 21.82 13.78 25.30 22.97 22.32 25.03 24.16 24.08 25.59 25.87 24.39 20.36 18.77 13.11 16.97 19.94 19.11 20.48 21.61 18.93 20.68 17.72 13.75 4.75 3.81 -0.12 3.51 7.23 7.19 9.83 9.66 11.18 13.63 16.89 20.08 18.42 15.65
48.51 42.06 39.28 35.66 32.05 31.93 31.28 24.68 11.48 21.89 20.03 24.92 24.27 23.72 22.26 22.39 22.54 23.08 20.63 14.99 19.53 15.89 11.40 10.85 9.52 10.68 17.78 15.63 15.94 12.10 9.04 9.75 3.93 -0.46 7.08 6.60 0.12 11.28 8.25 15.38 18.03 17.38 13.95 16.50 14.38
42.90 33.30 34.00 34.95 32.94 31.62 26.75 15.95 15.24 19.31 22.94 20.90 22.47 19.96 19.66 21.91 20.53 20.37 15.20 14.83 16.19 17.59 9.51 8.07 10.27 17.50 19.19 17.63 16.56 11.48 8.00 9.13 6.36 2.45 3.57 0.10 3.06 13.44 17.58 20.65 19.54 18.39 19.73 18.20 19.94
33.54 32.06 34.61 34.76 31.60 29.60 23.80 20.69 19.59 24.26 24.14 22.90 17.56 19.17 14.11 16.70 17.33 16.83 13.71 20.01 19.64 21.86 19.61 13.89 8.41 14.25 17.49 18.12 17.20 15.04 12.90 11.43 9.77 1.17 -4.26 -1.20 -3.56 9.91 14.52 17.10 19.80 19.43 18.03 16.91 20.51
32.16 30.67 37.18 35.24 31.97 27.67 18.91 18.75 22.58 25.64 24.52 21.33 18.50 17.04 16.20 15.81 16.02 15.12 15.32 20.20 22.45 20.99 24.04 17.48 12.80 10.70 16.84 11.52 13.90 13.97 13.19 11.24 10.82 10.82 1.69 -1.16 9.36 14.53 14.07 15.28 17.39 18.79 21.08 18.13 16.88
30.14 26.52 38.37 34.56 25.55 21.04 20.03 22.74 28.85 24.91 25.80 24.56 22.79 21.86 19.19 18.99 16.41 18.96 18.38 16.95 24.87 22.75 15.99 20.63 14.61 6.15 8.38 4.06 8.28 10.83 14.64 15.07 12.03 8.39 7.38 6.95 8.84 15.64 16.92 16.10 19.42 19.23 21.00 21.38 18.27
26.64 25.80 34.99 32.68 20.47 20.62 22.67 25.21 25.13 24.24 22.19 23.62 20.38 23.71 22.25 19.55 13.61 16.90 16.10 20.83 22.00 18.52 14.83 19.08 15.49 5.56 6.15 4.31 12.01 9.41 12.96 15.59 14.73 14.21 8.65 9.17 10.22 18.43 18.42 17.56 18.53 17.53 16.20 16.83 20.27
26.99 23.54 26.29 26.30 22.82 19.57 19.09 22.19 20.88 25.68 24.54 24.50 20.05 22.39 18.72 15.89 15.75 12.21 14.86 18.96 20.85 22.34 27.39 23.74 10.62 13.39 8.45 11.74 16.72 14.18 15.70 15.62 14.42 10.71 6.62 9.00 11.19 12.86 14.74 15.19 17.45 19.14 20.02 18.94 18.35
25.54 22.50 23.66 21.39 22.83 20.26 19.68 21.32 19.87 18.92 20.49 21.13 18.10 17.00 15.14 6.56 10.37 10.77 15.85 17.00 19.53 22.29 17.47 14.22 2.09 12.71 15.21 15.61 17.04 13.74 12.34 12.92 8.83 11.39 9.35 4.78 7.26 11.08 14.20 15.69 16.79 18.49 20.46 22.89 24.59
24.20 23.13 25.56 21.84 21.42 18.60 20.06 18.75 19.51 20.47 17.33 15.35 15.25 16.66 15.90 7.67 7.09 1.42 10.85 14.40 13.16 15.68 13.83 14.54 2.01 11.30 9.00 16.22 13.61 9.98 12.31 12.04 12.83 11.78 11.61 12.24 9.43 13.61 17.54 18.01 17.84 18.24 19.57 20.25 25.63
31.19 28.15 29.67 24.05 20.17 15.83 18.69 18.89 20.76 22.16 21.06 20.37 18.28 14.46 12.78 15.42 16.51 16.47 16.89 16.32 13.11 14.45 10.05 3.54 0.77 2.74 -0.24 8.46 12.80 2.82 7.07 10.48 9.01 10.63 13.06 8.60 9.81 13.82 14.21 15.66 16.15 16.81 18.15 20.92 25.54
MSLP
1016.56 1016.20 1015.83 1015.51 1015.10 1014.82 1014.49 1014.18 1013.91 1013.58 1013.34 1013.28 1013.09 1012.93 1012.81 1012.63 1012.29 1012.00 1011.94 1011.80 1011.26 1010.93 1010.93 1011.16 1011.09 1011.22 1011.49 1011.58 1011.73 1012.36 1013.14 1012.97 1012.42 1012.68 1011.53 1011.27 1011.80 1012.38 1012.95 1013.60 1014.30 1014.98 1015.39 1015.84 1016.91
1016.68 1016.26 1015.78 1015.49 1015.06 1014.82 1014.64 1014.27 1013.96 1013.67 1013.38 1013.07 1013.00 1012.86 1012.79 1012.61 1012.60 1012.07 1011.89 1011.33 1011.02 1010.83 1011.23 1011.43 1011.38 1011.33 1011.47 1011.57 1011.65 1012.12 1012.98 1012.47 1011.75 1011.89 1011.93 1011.87 1011.90 1012.31 1013.04 1013.87 1014.68 1015.50 1016.26 1016.73 1017.51
1016.72 1016.31 1015.82 1015.45 1015.03 1014.67 1014.38 1014.10 1013.69 1013.39 1013.07 1012.88 1012.66 1012.74 1012.74 1012.69 1012.75 1011.86 1011.60 1011.25 1011.09 1011.10 1011.25 1011.43 1011.55 1011.52 1011.58 1011.59 1011.80 1011.91 1012.17 1011.72 1011.74 1012.08 1012.22 1012.30 1012.75 1012.92 1013.49 1014.35 1014.18 1014.92 1016.45 1017.26 1017.90
1016.70 1016.26 1015.82 1015.47 1015.01 1014.56 1014.28 1013.89 1013.52 1013.23 1012.92 1012.71 1012.67 1012.64 1012.66 1012.87 1012.86 1011.75 1011.47 1011.36 1011.12 1011.16 1011.38 1011.52 1011.59 1011.62 1011.56 1011.64 1011.51 1012.05 1012.10 1012.23 1012.40 1012.62 1012.42 1012.45 1012.79 1013.26 1013.61 1013.92 1014.20 1014.61 1015.62 1016.78 1017.60
1016.63 1016.25 1015.81 1015.32 1014.88 1014.40 1014.08 1013.68 1013.35 1012.94 1012.65 1012.53 1012.46 1012.61 1012.79 1012.88 1012.15 1011.88 1011.63 1011.55 1011.34 1011.28 1011.52 1011.67 1011.75 1011.60 1011.64 1011.60 1011.71 1011.96 1012.38 1012.50 1012.66 1012.85 1012.90 1012.68 1012.79 1012.99 1013.41 1013.85 1014.44 1015.23 1016.34 1017.12 1017.91
1016.57 1016.11 1015.62 1015.14 1014.70 1014.23 1013.84 1013.48 1013.07 1012.77 1012.62 1012.43 1012.45 1012.48 1012.84 1012.85 1012.01 1011.97 1011.94 1011.71 1011.64 1011.59 1011.72 1011.85 1011.90 1011.78 1011.76 1011.92 1012.31 1012.52 1012.76 1013.05 1013.10 1013.31 1013.31 1013.19 1013.17 1013.29 1013.68 1014.26 1014.90 1015.68 1016.40 1017.34 1017.93
1016.32 1015.80 1015.34 1014.86 1014.38 1013.90 1013.50 1013.17 1012.80 1012.58 1012.40 1012.21 1012.31 1012.55 1012.73 1012.30 1012.03 1012.00 1011.90 1011.92 1011.87 1011.83 1011.76 1011.89 1012.05 1012.21 1012.28 1012.59 1012.87 1013.17 1013.50 1013.49 1013.62 1013.50 1013.46 1013.58 1013.74 1013.81 1014.09 1014.75 1015.29 1016.10 1016.82 1017.50 1018.10
1016.37 1015.81 1015.27 1014.69 1014.17 1013.62 1013.19 1012.92 1012.60 1012.35 1012.36 1012.27 1012.17 1012.52 1012.40 1011.94 1012.04 1012.02 1012.02 1011.92 1011.90 1011.76 1011.77 1011.82 1011.99 1012.45 1012.82 1013.26 1013.60 1013.96 1014.23 1014.27 1014.07 1013.98 1014.04 1014.16 1013.81 1014.21 1014.66 1015.32 1015.89 1016.32 1017.15 1017.73 1018.36
1016.21 1015.59 1014.97 1014.38 1013.77 1013.27 1012.79 1012.32 1012.04 1012.09 1012.17 1012.29 1012.48 1012.42 1012.23 1011.93 1012.12 1012.26 1012.25 1012.27 1012.13 1011.93 1011.91 1011.95 1012.23 1013.35 1013.66 1014.28 1015.09 1015.08 1014.98 1014.82 1014.56 1014.57 1014.56 1014.59 1014.48 1014.70 1014.96 1015.57 1016.25 1016.80 1017.26 1017.91 1018.55
1016.05 1015.37 1014.74 1014.17 1013.52 1013.02 1012.50 1012.10 1011.85 1012.08 1012.27 1012.46 1012.66 1012.96 1012.25 1012.44 1012.40 1012.38 1012.26 1012.27 1012.33 1012.30 1012.34 1012.71 1013.50 1014.17 1015.00 1015.45 1016.06 1015.96 1015.94 1015.40 1015.10 1015.23 1015.14 1015.30 1015.22 1015.03 1015.30 1015.78 1016.24 1016.94 1017.69 1018.29 1018.63
1015.83 1015.08 1014.38 1013.76 1013.30 1012.85 1012.53 1012.40 1012.87 1013.07 1012.79 1012.72 1012.89 1012.75 1012.58 1012.51 1012.43 1012.50 1012.49 1012.42 1012.48 1012.80 1013.28 1013.73 1014.26 1014.98 1015.60 1015.74 1016.14 1016.57 1016.60 1016.25 1015.86 1015.90 1015.90 1015.87 1015.85 1015.29 1015.59 1016.03 1016.49 1016.94 1017.56 1018.01 1018.45
1015.63 1014.79 1014.10 1013.58 1013.33 1013.06 1013.19 1013.97 1014.62 1015.04 1013.93 1013.11 1012.80 1012.73 1012.72 1012.81 1012.79 1012.73 1012.68 1012.85 1012.90 1013.43 1013.82 1014.40 1014.91 1015.42 1015.61 1015.92 1016.30 1016.62 1016.96 1016.98 1016.79 1016.78 1016.97 1016.99 1016.06 1015.43 1015.37 1015.66 1015.77 1016.08 1016.91 1017.56 1018.33
1015.64 1014.67 1013.95 1013.56 1013.34 1013.87 1014.56 1015.08 1015.05 1015.06 1014.55 1013.54 1013.01 1012.83 1012.98 1013.05 1013.23 1013.32 1013.29 1013.31 1013.64 1014.08 1014.55 1015.00 1015.63 1015.70 1015.96 1016.36 1016.70 1017.15 1017.67 1017.74 1018.07 1017.86 1018.07 1018.14 1016.64 1015.69 1015.46 1015.73 1015.97 1016.24 1016.58 1017.10 1017.49
1015.65 1014.82 1014.20 1013.59 1013.94 1014.96 1015.25 1015.28 1015.11 1015.04 1014.68 1014.13 1013.29 1013.11 1012.98 1013.00 1013.48 1013.56 1013.64 1013.92 1014.24 1014.81 1015.31 1015.87 1016.07 1016.20 1016.48 1016.90 1017.32 1017.85 1018.24 1018.61 1019.01 1019.43 1020.04 1019.68 1018.76 1016.85 1016.75 1016.72 1017.02 1017.24 1017.64 1017.56 1017.77
1015.68 1015.07 1014.60 1014.04 1014.99 1015.30 1015.62 1015.25 1015.03 1015.10 1015.25 1014.54 1013.55 1013.10 1013.08 1013.48 1013.83 1013.84 1013.90 1013.93 1014.69 1015.42 1016.24 1016.83 1016.98 1017.10 1017.31 1017.76 1017.93 1018.56 1018.96 1019.63 1020.42 1021.00 1021.32 1021.06 1021.00 1018.02 1017.75 1018.19 1018.27 1018.23 1018.16 1018.20 1017.99
1015.79 1015.22 1014.70 1014.89 1015.26 1015.54 1015.40 1015.18 1015.10 1015.51 1015.82 1014.92 1014.28 1014.21 1014.08 1013.93 1014.10 1014.19 1014.37 1014.64 1015.29 1016.05 1016.86 1017.73 1018.10 1018.42 1018.68 1018.83 1018.93 1019.29 1019.95 1020.81 1021.62 1022.64 1022.90 1021.99 1021.94 1020.15 1020.16 1020.34 1019.31 1018.85 1018.51 1018.14 1018.15
1015.64 1015.36 1014.96 1015.36 1015.94 1015.63 1015.41 1015.46 1015.94 1016.38 1016.78 1016.45 1016.00 1015.71 1015.72 1015.51 1015.27 1015.34 1015.74 1016.47 1017.35 1017.77 1018.20 1018.62 1019.20 1019.66 1019.80 1019.91 1020.07 1020.37 1021.15 1022.32 1023.10 1024.05 1023.42 1022.74 1022.71 1021.03 1020.67 1020.48 1020.28 1019.71 1018.79 1018.32 1018.23
1015.43 1015.43 1015.77 1016.08 1016.00 1015.81 1015.85 1015.95 1017.02 1018.22 1017.96 1017.62 1017.06 1016.53 1016.64 1017.01 1016.94 1016.97 1017.22 1018.42 1018.94 1019.38 1019.81 1020.25 1020.53 1021.17 1021.31 1021.45 1021.56 1021.90 1022.36 1022.79 1023.46 1024.06 1023.82 1023.37 1022.82 1021.37 1020.90 1020.43 1020.14 1019.87 1019.42 1019.05 1019.07
1015.73 1016.04 1016.23 1016.05 1015.77 1015.84 1016.30 1017.45 1019.35 1019.30 1019.14 1018.78 1017.89 1017.73 1018.02 1018.25 1018.65 1018.54 1019.49 1020.43 1020.49 1020.56 1021.18 1021.57 1021.77 1022.13 1022.18 1022.34 1022.69 1023.04 1023.47 1023.55 1023.64 1024.22 1024.32 1023.58 1022.59 1021.29 1020.88 1020.50 1020.26 1020.11 1019.97 1019.95 1019.80
1016.54 1016.61 1016.35 1015.98 1015.80 1015.96 1017.13 1019.51 1019.94 1019.84 1019.66 1019.50 1019.54 1019.39 1019.72 1019.98 1020.02 1020.06 1020.68 1021.72 1021.41 1021.44 1021.31 1022.21 1022.49 1022.45 1022.67 1023.01 1023.43 1023.44 1024.00 1023.81 1023.56 1023.79 1023.97 1023.32 1023.19 1022.44 1021.88 1021.71 1021.29 1020.86 1020.70 1020.56 1020.40
1017.05 1017.14 1016.42 1015.95 1015.83 1017.01 1019.60 1020.53 1020.48 1020.45 1020.36 1020.39 1020.57 1020.78 1021.20 1021.48 1021.37 1021.45 1022.08 1022.34 1022.20 1022.04 1021.75 1022.12 1022.80 1022.99 1022.99 1023.52 1023.69 1024.17 1023.86 1023.84 1023.65 1023.13 1022.92 1023.23 1023.32 1023.64 1023.09 1022.81 1022.49 1021.84 1021.40 1021.02 1020.89
1018.05 1018.39 1017.12 1016.14 1018.02 1020.34 1021.28 1021.45 1021.37 1021.34 1021.26 1021.26 1021.45 1021.90 1022.18 1022.22 1022.28 1022.43 1022.73 1022.70 1022.45 1022.61 1022.37 1022.37 1022.75 1023.33 1023.58 1024.03 1024.11 1023.70 1023.29 1022.94 1022.79 1022.82 1022.73 1022.79 1023.61 1023.54 1023.34 1023.10 1022.78 1022.42 1022.11 1021.75 1021.33
1020.05 1019.95 1018.36 1017.80 1021.02 1022.30 1022.31 1022.45 1022.40 1022.32 1022.55 1022.48 1022.75 1022.95 1023.08 1023.52 1023.55 1023.59 1023.37 1023.13 1023.18 1022.97 1022.56 1022.39 1022.85 1023.66 1023.74 1024.58 1024.19 1023.75 1023.30 1022.82 1022.52 1022.29 1022.57 1022.85 1023.27 1023.62 1023.17 1022.79 1022.79 1022.65 1022.47 1022.03 1021.71
1021.15 1021.61 1021.56 1021.87 1023.41 1023.69 1023.81 1023.76 1023.44 1023.34 1023.61 1023.71 1023.97 1023.84 1024.22 1024.68 1024.85 1024.89 1024.37 1023.81 1023.73 1023.60 1023.10 1023.15 1023.63 1024.12 1024.48 1024.54 1024.06 1023.48 1023.20 1023.07 1022.93 1022.89 1023.20 1023.34 1023.60 1024.06 1024.19 1024.05 1023.49 1022.84 1022.41 1022.17 1021.99
1022.85 1024.73 1024.84 1024.66 1024.58 1024.94 1024.77 1024.85 1024.56 1024.44 1024.43 1024.41 1024.69 1025.32 1025.69 1026.16 1026.14 1026.05 1025.57 1025.08 1024.40 1024.45 1024.55 1024.73 1025.22 1024.84 1024.58 1024.19 1023.97 1024.14 1023.96 1023.76 1023.59 1023.79 1023.91 1024.28 1024.58 1024.86 1024.78 1024.56 1024.10 1023.68 1022.99 1022.32 1021.75
1024.81 1025.51 1025.00 1025.14 1025.21 1025.46 1025.57 1025.65 1025.49 1025.39 1025.52 1025.49 1025.77 1026.06 1026.29 1026.94 1027.39 1027.34 1026.95 1026.58 1026.71 1026.06 1026.06 1026.29 1026.50 1026.13 1025.70 1024.73 1024.71 1024.94 1025.00 1024.69 1024.53 1024.65 1024.52 1024.64 1025.09 1025.21 1024.99 1024.64 1024.10 1023.60 1023.04 1022.50 1021.82
1025.19 1025.70 1025.76 1025.92 1025.88 1026.09 1026.62 1026.40 1026.24 1026.13 1026.19 1026.14 1026.26 1026.52 1026.71 1027.08 1027.13 1026.94 1027.10 1027.30 1027.43 1027.65 1027.69 1027.97 1028.19 1027.93 1027.51 1026.75 1025.80 1025.99 1026.14 1025.75 1025.57 1025.44 1025.34 1025.51 1025.87 1025.60 1025.15 1024.87 1024.45 1023.59 1023.11 1022.61 1022.03
Wind_Speed
19 19 20 20 18 17 16 15 15 14 13 13 12 11 11 10 9 3 1 4 5 11 7 5 2 2 3 3 4 4 1 5 6 7 5 1 3 2 1 7 3 3 2 1 19
20 21 21 21 20 18 17 16 15 14 13 12 12 11 10 9 3 1 2 9 9 9 4 3 1 2 2 2 3 5 4 10 4 4 3 4 2 6 4 3 2 3 6 13 16
20 21 21 22 21 19 17 16 15 14 12 11 10 10 10 6 3 3 3 9 9 7 1 1 1 1 4 4 4 5 6 4 2 0 1 4 4 4 7 4 7 8 13 14 15
20 21 22 23 22 20 19 17 16 15 12 10 9 8 10 1 4 2 6 9 8 5 4 2 1 3 4 5 5 3 4 2 1 3 2 4 5 5 6 2 3 7 17 15 16
21 23 21 23 22 20 18 17 15 14 10 9 6 6 3 3 4 2 8 9 3 3 3 1 3 4 4 3 3 3 3 3 3 2 2 2 2 2 5 3 7 14 15 14 13
21 21 22 23 22 21 19 17 14 12 8 6 3 2 1 3 2 4 6 4 3 3 3 4 2 2 2 1 4 2 2 2 1 2 2 1 1 1 1 5 8 12 10 11 11
22 23 22 23 22 21 19 17 14 11 5 2 1 2 1 4 2 4 6 2 2 1 2 2 1 2 2 3 3 4 3 2 0 0 1 1 4 7 2 5 8 7 7 8 8
25 24 24 24 23 22 19 17 15 10 4 1 2 2 4 1 1 3 6 2 5 1 1 1 2 3 3 2 6 2 4 3 1 1 1 3 5 0 2 7 8 8 7 8 8
25 25 25 24 23 22 20 18 12 6 3 1 2 3 5 3 3 3 2 3 5 2 1 2 5 4 4 4 5 5 3 4 3 1 0 2 3 1 3 4 6 6 7 7 7
26 26 25 24 22 20 19 11 2 3 3 2 0 1 3 3 3 3 3 3 3 2 3 6 5 4 4 4 5 5 4 3 3 2 1 3 8 7 3 6 8 6 6 7 9
27 25 24 21 20 17 8 4 5 3 6 1 2 1 2 5 1 3 3 2 1 5 1 3 3 3 4 3 4 6 3 0 2 4 2 5 7 11 5 5 7 8 9 9 10
28 26 21 18 16 10 4 6 2 1 1 0 0 1 1 1 3 5 4 2 2 0 1 5 1 1 1 2 2 2 2 3 1 2 2 6 13 12 7 7 11 14 11 12 9
28 24 19 17 5 6 4 3 1 0 2 2 1 1 1 2 1 5 4 1 4 1 3 3 0 1 1 2 1 1 3 1 2 4 2 6 9 6 3 1 2 4 6 10 16
28 21 16 16 6 2 3 5 3 0 5 7 4 2 2 1 1 1 2 2 4 1 1 2 1 1 2 2 2 2 2 2 3 4 3 2 7 6 4 7 5 4 3 7 8
25 17 11 12 1 3 5 4 1 2 5 5 4 2 2 2 1 3 2 3 2 2 2 1 1 2 1 2 2 2 3 3 2 4 4 4 3 8 5 5 5 6 5 6 8
21 13 9 4 3 1 5 3 2 7 4 5 4 8 7 5 2 2 2 5 2 2 4 3 1 4 1 2 3 3 4 5 4 3 3 3 4 6 3 5 9 5 8 8 8
16 6 5 1 3 5 2 3 7 7 5 7 5 6 4 5 6 6 5 6 3 6 3 2 2 2 4 1 2 4 4 3 5 4 6 3 3 7 6 5 6 13 15 8 3
10 3 5 2 4 3 3 6 10 3 4 4 5 7 4 10 3 9 5 7 6 5 2 2 6 5 6 3 1 2 5 4 5 2 3 3 5 4 5 8 6 5 6 4 5
5 3 3 5 3 2 5 8 1 3 4 7 9 3 4 6 5 8 5 8 3 5 2 5 3 0 4 4 3 1 1 2 6 1 2 2 7 9 4 10 10 9 9 8 6
2 2 5 7 2 4 8 4 1 3 4 3 5 5 7 7 9 7 4 7 7 10 2 2 4 2 1 1 5 2 1 1 2 2 4 4 4 4 14 13 12 11 9 8 7
4 4 7 9 2 8 6 2 3 4 6 6 5 5 4 4 3 5 4 2 6 9 8 1 2 4 1 4 5 2 2 1 2 2 4 1 2 5 8 6 8 9 8 5 4
3 4 9 6 8 3 3 4 6 6 9 6 4 4 3 3 4 4 6 3 1 6 4 3 0 3 7 3 1 1 1 3 3 3 1 1 2 3 8 5 8 10 9 9 4
3 2 6 6 6 4 4 4 4 8 8 6 6 5 4 5 3 8 7 7 9 5 2 2 2 4 8 5 1 1 2 2 2 1 3 2 4 8 13 14 11 11 9 9 6
4 5 6 7 2 3 4 5 6 6 4 4 5 6 5 6 5 4 8 4 8 7 11 3 1 0 2 2 6 2 6 1 2 2 0 1 2 12 12 12 14 16 13 9 6
5 2 1 5 5 5 3 4 5 7 6 9 4 8 3 5 7 5 4 6 5 12 7 4 1 3 2 7 4 9 10 10 4 2 2 3 3 6 10 11 9 8 11 11 9
4 4 3 2 3 4 7 6 6 4 5 5 3 6 4 3 6 5 1 3 3 9 7 6 3 2 3 10 13 12 13 11 9 8 2 2 0 3 8 8 10 12 10 11 3
0 1 0 5 3 4 2 4 4 2 1 1 3 2 3 2 6 8 7 2 4 3 4 3 1 4 3 3 3 7 8 8 5 3 3 1 2 5 11 12 12 14 12 9 6
Wind_Direction
355 355 351 346 349 340 336 330 326 322 316 314 309 310 310 317 327 358 238 261 308 315 11 323 109 141 110 148 130 145 95 204 199 164 255 183 154 49 96 111 65 29 49 75 128
353 350 349 345 344 341 333 329 326 323 317 312 308 312 311 322 296 253 231 317 327 327 17 13 156 125 142 188 156 136 178 210 191 183 198 199 203 161 134 111 159 98 48 122 131
350 346 348 344 342 340 333 327 323 318 309 305 304 310 311 333 291 195 284 340 331 12 208 184 268 218 180 144 205 166 212 216 192 179 204 179 148 160 130 251 209 186 152 148 144
344 347 346 342 340 338 332 327 324 320 316 306 305 308 312 143 255 207 342 344 340 4 132 164 213 165 172 194 170 176 162 170 322 328 196 187 126 182 203 141 325 157 155 151 157
343 346 341 340 337 335 332 325 324 323 321 310 295 308 349 269 270 6 350 339 21 41 64 224 183 161 196 189 129 213 170 117 135 44 31 243 197 220 227 57 96 130 149 157 157
342 340 339 338 336 332 332 324 324 324 324 327 287 16 36 280 0 10 351 344 26 50 43 37 248 209 146 115 169 95 83 120 63 140 49 203 231 176 176 122 117 144 151 156 152
336 336 334 335 332 329 329 320 318 314 309 330 239 111 239 254 359 342 10 323 6 359 72 86 58 360 73 124 149 133 159 291 93 307 86 352 254 232 107 135 139 149 148 143 146
339 338 334 332 329 327 325 318 311 299 284 247 104 102 242 25 238 15 343 22 346 6 74 132 118 101 43 109 28 87 71 167 194 176 328 181 248 111 172 158 177 161 155 151 154
336 333 331 328 328 326 321 315 306 262 239 207 85 124 291 330 19 322 29 0 311 349 1 71 68 86 34 76 13 5 233 199 281 66 127 176 238 343 146 175 196 178 164 158 138
336 334 331 330 330 327 319 320 32 82 66 92 358 44 354 315 304 336 359 26 21 354 32 39 47 76 46 83 219 219 235 250 251 24 34 260 260 244 189 188 206 188 171 170 170
338 335 333 333 334 330 350 25 27 3 52 121 175 219 302 298 260 15 7 20 31 49 47 11 58 219 217 156 156 130 106 315 288 16 339 263 275 274 205 207 211 191 187 190 188
340 337 335 335 337 355 53 69 47 273 6 323 236 294 346 14 341 353 4 62 33 23 338 20 193 50 89 118 127 84 86 258 283 25 60 343 292 264 218 209 201 199 194 186 168
342 340 340 340 7 37 63 52 3 290 95 342 24 34 340 16 42 322 15 2 54 73 24 170 133 328 103 54 152 114 151 299 229 329 58 328 281 282 23 346 354 230 201 188 181
343 343 350 341 51 320 42 329 345 36 79 335 348 19 353 71 53 350 18 58 38 138 81 91 319 125 96 86 8 228 347 44 26 59 243 50 282 312 339 331 13 317 228 196 188
343 348 4 35 202 51 291 312 296 55 45 321 347 287 323 55 272 7 9 15 115 135 115 281 30 28 95 59 7 132 55 70 68 83 52 316 73 270 7 353 332 318 336 251 204
345 348 357 26 47 292 310 323 57 46 277 343 348 356 2 3 25 335 30 44 114 112 58 71 52 38 44 63 42 133 73 42 55 73 13 282 129 298 1 265 307 306 293 285 206
340 354 28 30 319 331 340 40 33 87 346 337 339 351 332 320 19 8 8 18 25 28 347 128 58 38 16 118 60 67 69 335 352 10 225 322 61 247 285 276 261 300 303 313 207
337 26 15 57 323 346 41 48 67 338 345 349 330 317 60 11 24 351 20 18 28 39 44 47 332 11 342 60 221 58 147 165 230 219 285 44 238 262 236 298 309 314 313 8 71
12 350 27 326 327 58 71 52 120 342 316 335 317 15 17 10 6 5 63 343 14 22 100 11 299 93 28 16 25 271 57 219 104 54 46 268 300 318 308 11 7 8 23 21 50
51 16 351 328 3 66 65 100 75 11 328 359 9 44 14 0 8 19 20 337 355 18 288 205 328 329 106 135 55 68 49 63 11 194 257 302 279 304 347 351 350 6 11 11 26
42 38 317 346 55 46 81 80 14 28 18 23 2 0 13 3 294 349 355 22 34 345 339 197 125 284 140 190 181 149 190 189 293 235 174 188 69 349 333 336 337 350 355 346 2
25 26 323 355 48 33 50 11 17 349 10 28 65 58 349 334 334 358 45 323 21 314 327 318 137 263 245 273 212 100 267 217 235 210 242 177 104 316 2 355 353 332 341 339 326
48 315 334 37 60 8 347 29 60 19 7 19 12 12 1 25 8 41 351 345 10 328 252 314 347 317 328 3 317 269 226 303 320 245 208 208 137 17 6 6 2 358 344 337 332
52 11 352 38 39 48 9 5 356 29 58 40 28 43 6 23 15 6 345 326 348 356 359 359 262 62 320 0 306 3 30 6 297 304 176 334 37 3 360 353 345 341 337 330 321
23 60 152 359 9 31 47 4 356 11 358 23 60 32 57 26 352 0 324 317 337 359 357 67 169 335 270 275 94 61 33 17 26 360 321 279 78 346 345 335 314 308 314 329 333
56 24 340 3 5 27 3 11 15 13 24 348 47 348 33 130 172 248 47 355 358 323 5 354 286 4 23 53 87 62 32 24 15 7 38 82 350 238 320 316 325 330 324 319 345
78 343 359 345 19 62 14 309 354 337 263 62 308 23 345 333 258 240 215 247 212 328 317 42 55 34 306 347 244 29 341 351 312 261 305 353 278 321 332 334 327 321 321 319 339